This is the latest recevied weather packets stored in our database for station/object DC4THF-13. If no packets are shown the sender has not sent any weather packets the latest 10 day(s).
| Time | Temp. | Humidity | Pressure | Rain* | Wind** | Luminosity | Snow |
|---|---|---|---|---|---|---|---|
| 1777556588 | 22.22° C | 23% | 1023.7 hPa | 0 mm | - | - | - |
| 1777555985 | 21.67° C | 23% | 1023.8 hPa | 0 mm | - | - | - |
| 1777555382 | 21.67° C | 23% | 1023.9 hPa | 0 mm | - | - | - |
| 1777554779 | 22.22° C | 23% | 1024 hPa | 0 mm | - | - | - |
| 1777554176 | 21.67° C | 25% | 1024.1 hPa | 0 mm | - | - | - |
| 1777553572 | 20.56° C | 23% | 1024.2 hPa | 0 mm | - | - | - |
| 1777552969 | 21.11° C | 23% | 1024.3 hPa | 0 mm | - | - | - |
| 1777552365 | 20.56° C | 24% | 1024.5 hPa | 0 mm | - | - | - |
| 1777551762 | 20.56° C | 23% | 1024.7 hPa | 0 mm | - | - | - |
| 1777551159 | 20.56° C | 24% | 1024.8 hPa | 0 mm | - | - | - |
| 1777550556 | 20.56° C | 24% | 1024.8 hPa | 0 mm | - | - | - |
| 1777549953 | 19.44° C | 23% | 1025 hPa | 0 mm | - | - | - |
| 1777549350 | 20° C | 23% | 1025 hPa | 0 mm | - | - | - |
| 1777548746 | 19.44° C | 23% | 1025.1 hPa | 0 mm | - | - | - |
| 1777548143 | 19.44° C | 23% | 1025.3 hPa | 0 mm | - | - | - |
| 1777547540 | 19.44° C | 22% | 1025.5 hPa | 0 mm | - | - | - |
| 1777546937 | 18.89° C | 24% | 1025.6 hPa | 0 mm | - | - | - |
| 1777546394 | 19.44° C | 24% | 1025.8 hPa | 0 mm | - | - | - |
| 1777545791 | 18.33° C | 24% | 1026 hPa | 0 mm | - | - | - |
| 1777545188 | 18.33° C | 24% | 1026.1 hPa | 0 mm | - | - | - |
| 1777544584 | 18.33° C | 25% | 1026.2 hPa | 0 mm | - | - | - |
| 1777543981 | 17.78° C | 24% | 1026.5 hPa | 0 mm | - | - | - |
| 1777543377 | 17.78° C | 23% | 1026.6 hPa | 0 mm | - | - | - |
| 1777542772 | 18.89° C | 22% | 1026.7 hPa | 0 mm | - | - | - |
| 1777542169 | 18.89° C | 24% | 1027 hPa | 0 mm | - | - | - |
* Rain latest hour (hover to see other rain measurements)
** Current wind speed in m/s (hover to see current wind gust speed)